Tracking 33404 objects as of 6-Mar-2026
HD Live streaming from Space Station
objects crossing your sky now

OPS 0203 (DMSP 5A F2)

Track OPS 0203 (DMSP 5A F2) now!
10-day predictions
OPS 0203 (DMSP 5A F2) is classified as:


NORAD ID: 4512
Int'l Code: 1970-070A
Perigee: 732.0 km
Apogee: 822.7 km
Inclination: 98.9 °
Period: 100.2 minutes
Semi major axis: 7148 km
RCS: 0.9702 m2 (medium)
Launch date: September 3, 1970
Source: United States (US)
Launch site: AIR FORCE WESTERN TEST RANGE (AFWTR)
Your satellite tracking list
Your tracking list is empty




NASA's NSSDC Master Catalog

Two Line Element Set (TLE):
1 04512U 70070A   26065.30568280  .00000576  00000-0  20736-3 0  9996
2 04512  98.8697  10.7238 0063492  29.9461 330.5332 14.36465698896854
Source of the keplerian elements: AFSPC